DELTA 1 R/B(2) *, 11792

Orbit data source: Space-Track

DELTA 1 R/B(2) *, 11792 is space debris in HEO originally from a launch on Wed, 26 Oct 1966 UTC launched from the Air Force Eastern Test Range (AFETR). Debris objects in space refer to the collection of defunct objects orbiting the Earth. Examples of debris include non-operational satellites, rocket bodies, and fragments generated from explosions, collisions, or faulty payload assembly.

Loading next visibility...
Identifier
11792, 1966-096C
Orbit
HEO
Country
Flag of USUS
Related business
Manufacturer
Unknown
Mission
Spacecraft
Bus & Motor
Unknown
Mass
Unknown
Launch date (UTC)
1966-10-26 (59 years ago)
Launch vehicle
Unknown
Launch site
Air Force Eastern Test Range (AFETR)
Object type
Payload
Rocket body
Debris
Shape & HBR
Unknown
Radar Cross Section
Medium (>0.1 m² and <1 m²)

Expand to show TLE details & history
Last TLE update: 2 days ago

TLE from 2 days ago
0 DELTA 1 R/B(2) *
1 11792U 66096C   25286.78453439  .00015962  00000-0  13772-1 0  9997
2 11792  17.8074 239.9518 6094407 298.5825  13.7993  3.81539683421921
Epoch: 2025-10-13T18:49Z
TLE epoch observation values (Epoch: 2025-10-13T18:49:43.771Z)
Latitude
-0.00025°
Longitude
-65.12644°
Altitude
2,031.027 km
Speed
8.471 km/s
True Right ascension
15h 59m 33s
True Declination
0° 00' 01"
Sunlit
Object was in daylight at epoch
Visualization orbit readout
Latitude
Unknown
Longitude
Unknown
Altitude
Unknown
Speed
Unknown
Apparent Right ascension
Unknown
Apparent Declination
Unknown
Sunlit
N/A
Visualization observer readout
Local Sidereal Time
17:55:07
Azimuth
Unknown
Elevation
Unknown
Doppler factor
Unknown
Orbital elements
Apogee altitude
21,472.013 km
Perigee altitude
380.195 km
Semi-major axis
17,304.241 km
Eccentricity
0.60944
Inclination
17.8074°
RAAN
239.9518°
Arg. of periapsis
298.5825°
True anomaly
61.42883°
Mean anomaly
13.7993°
Eccentric anomaly
32.62528°
Mean motion
0.95349 °/min
Orbital period
377.56 mins
BSTAR
0.013772
Loading maneuver chart data...
Computing Atmospheric mass density...
Loading historical data...
Loading historical data...
Loading historical data...
Loading historical data...
Loading historical data...
Loading historical data...
Loading historical data...
Other satellites on launch #96 in the year 1966 (1966-10-26 UTC)

Documentation

Showing up to 5 results
|